{"data":{"norad_id":63057,"epoch":"2026-09-21T11:24:28.766016Z","epoch_age_seconds":81117,"freshness":"FRESH","line1":"1 63057U 25035F   26264.47533294  .00130953  00000+0  10061-2 0  9993","line2":"2 63057  43.0008 275.1426 0001970 279.4869  80.5776 15.70884600 91896","mean_motion":15.708846,"eccentricity":0.000197,"inclination_deg":43.0008,"raan_deg":275.1426,"arg_perigee_deg":279.4869,"mean_anomaly_deg":80.5776,"bstar":0.0010061,"rev_number":9189,"period_min":91.668095797744,"perigee_km":355.04089203345,"apogee_km":357.69428684169,"semimajor_km":6734.5045894376,"source":"CELESTRAK","updated_at":"2026-09-22T09:00:49.750631Z"}}